Tracking 30995 objects as of 5-Jul-2025
HD Live streaming from Space Station
objects crossing your sky now

CRRES DEB (CANISTER)

Track CRRES DEB (CANISTER) now!


NORAD ID: 20811
Int'l Code: 1990-065C
Perigee: 310.3 km
Apogee: 30,574.3 km
Inclination: 18.0 °
Period: 534.4 minutes
Semi major axis: 21813 km
RCS: 0.1323 m2 (medium)
Launch date: July 25, 1990
Source: United States (US)
Launch site: AIR FORCE EASTERN TEST RANGE (AFETR)

Note: This is SATELLITE DEBRIS
Your satellite tracking list
Your tracking list is empty




NASA's NSSDC Master Catalog

Two Line Element Set (TLE):
1 20811U 90065C   25186.10079695  .00002192  00000-0  15499-2 0  9995
2 20811  18.0365  48.0385 6937057  42.2167 354.1318  2.69477017112084
Source of the keplerian elements: AFSPC